Location: Springville
(37.3745°N, 89.2676°W)
Time: 15:10:01
(UTC+00:00)

Cosmos 1400 Rocket - Pass Details

Date: 29 October 2020
Orbit: 521 x 568 km, 81.2° (Epoch: 03 December)

Event Time Altitude Azimuth Distance (km) Brightness Sun altitude
Rises 23:26:19 0° 180° (S) 2,751 6.6 -5.6°
Reaches altitude 10° 23:28:30 10° 177° (S) 1,856 5.7 -6.0°
Maximum altitude 23:32:33 64° 96° (E) 629 2.9 -6.8°
Drops below altitude 10° 23:36:36 10° 16° (NNE) 1,853 5.2 -7.6°
Sets 23:38:47 0° 13° (NNE) 2,745 6.1 -8.0°
